x

9439040 - Astoria, Or (asto3) Weather Station

12:30 - Fri 22nd Aug 2014 All times are PDT. -7 hours from GMT.

  • Wind
    6mph, 8mph gusts
  • Sea Temp 67°f
  • Air Temp 62°f
  • Sea Pressure 1016.5mb
  • 9439040 - Astoria, Or
  • 9439040 - Astoria, Or

More Historic Weather Station data

Upgrade to MSW Pro to gain access to the past 30 days of data for over 8000 Wavebouys and Weather Stations around the globe.

Join Pro

Comparision Forecast

View Surf forecast
   
ven. 08/22 12:30 6 8 mph 1016.5mb 67f 62f
12:24 5 6 mph 1016.5mb 67f 63f
12:18 5 6 mph 1016.5mb 67f 63f
12:12 3
mph
1016.5mb 67f 63f
12:06 3 5 mph 1016.4mb 67f 63f
12:00 3 5 mph 1016.5mb 67f 63f
jeu. 08/21 11:54  -  1 mph 1016.4mb 68f 63f
11:48  -  2 mph 1016.4mb 69f 63f
11:42 1 3 mph 1016.4mb 69f 63f
11:36 3
mph
1016.4mb 69f 63f
11:30 3
mph
1016.5mb 69f 63f
11:24 3 6 mph 1016.5mb 69f 63f
11:18 3 5 mph 1016.5mb 70f 63f
11:12 2 3 mph 1016.5mb 70f 63f
11:06 3
mph
1016.5mb 70f 62f
11:00 3 5 mph 1016.5mb 70f 62f
10:54 2 3 mph 1016.6mb 70f 63f
10:48 2 3 mph 1016.6mb 70f 63f
10:42 2 3 mph 1016.5mb 70f 63f
10:36 3
mph
1016.5mb 70f 63f
10:30 2 3 mph 1016.5mb 70f 63f
10:24 2 5 mph 1016.5mb 70f 63f
10:18 3 5 mph 1016.6mb 70f 63f
10:12 3 5 mph 1016.6mb 70f 63f
10:06 2 6 mph 1016.6mb 71f 63f
10:00 3 5 mph 1016.6mb 71f 63f
9:54 3 6 mph 1016.6mb 71f 63f
9:48 5 6 mph 1016.6mb 71f 63f
9:42 3 6 mph 1016.6mb 71f 63f
9:36 3 5 mph 1016.6mb 71f 63f
9:30 3 5 mph 1016.6mb 71f 62f
9:24 3 5 mph 1016.7mb 71f 62f
9:18 3 5 mph 1016.7mb 71f 62f
9:12 3 5 mph 1016.6mb 70f 62f
9:06 3 5 mph 1016.6mb 70f 62f
9:00 3 5 mph 1016.5mb 70f 62f
8:54 3 6 mph 1016.5mb 70f 62f
8:48 3 6 mph 1016.5mb 70f 63f
8:42 5 6 mph 1016.4mb 70f 63f
8:36 3 6 mph 1016.4mb 70f 63f
8:30 6 9 mph 1016.4mb 70f 64f
8:24 6 8 mph 1016.4mb 70f 64f
8:18 7 8 mph 1016.4mb 70f 63f
8:12 6 9 mph 1016.4mb 70f 64f
8:06 8 10 mph 1016.5mb 70f 64f
8:00 7 8 mph 1016.5mb 70f 64f
7:54 7 9 mph 1016.4mb 70f 64f
7:48 8 10 mph 1016.4mb 70f 64f
7:42 8 11 mph 1016.4mb 70f 64f
7:36 8 10 mph 1016.3mb 70f 64f
7:30 9 11 mph 1016.3mb 70f 64f
7:24 8 10 mph 1016.4mb 70f 64f
7:18 9 11 mph 1016.5mb 70f 64f
7:12 9 11 mph 1016.5mb 70f 64f
7:06 8 11 mph 1016.5mb 69f 65f
7:00 9 11 mph 1016.5mb 69f 65f
6:54 10 14 mph 1016.5mb 69f 64f
6:48 10 13 mph 1016.6mb 69f 64f
6:42 10 13 mph 1016.6mb 69f 64f
6:36 10 14 mph 1016.7mb 69f 64f
6:30 11 13 mph 1016.7mb 69f 65f
6:24 10 14 mph 1016.8mb 70f 64f
6:18 13 15 mph 1016.8mb 70f 64f
6:12 10 14 mph 1016.8mb 70f 64f
6:06 13 14 mph 1016.8mb 70f 64f
6:00 11 14 mph 1016.9mb 70f 64f
5:54 11 14 mph 1016.9mb 70f 64f
5:48 11 14 mph 1016.9mb 70f 65f
5:42 11 14 mph 1016.9mb 70f 65f
5:36 13 14 mph 1016.9mb 70f 65f
5:30 13 14 mph 1016.9mb 69f 65f
5:24 13 14 mph 1016.9mb 70f 65f
5:18 13 14 mph 1016.9mb 70f 65f
5:12 13 14 mph 1016.9mb 70f 65f
5:06 14 15 mph 1016.9mb 70f 65f
5:00 14 16 mph 1016.9mb 70f 64f
4:54 13 16 mph 1016.9mb 70f 65f
4:48 13 14 mph 1016.9mb 70f 65f
4:42 11 15 mph 1016.9mb 70f 65f
4:36 14 16 mph 1016.9mb 70f 64f
4:30 11 15 mph 1017mb 70f 65f
4:24 11 15 mph 1017.1mb 69f 65f
4:18 14 15 mph 1017.1mb 68f 65f
4:12 13 15 mph 1017.1mb 67f 65f
4:06 13 15 mph 1017.1mb 66f 65f
4:00 11 13 mph 1017.1mb 65f 65f
3:54 13 14 mph 1017.1mb 66f 65f
3:48 13 14 mph 1017.1mb 65f 65f
3:42 11 14 mph 1017.1mb 65f 65f
3:36 13 14 mph 1017.1mb 66f 65f
3:30 11 14 mph 1017.2mb 67f 65f
3:24 13 14 mph 1017.2mb 67f 65f
3:18 13 14 mph 1017.2mb 68f 65f
3:12 11 13 mph 1017.3mb 68f 65f
3:06 10 13 mph 1017.4mb 67f 65f
3:00 10 11 mph 1017.4mb 67f 65f
2:54 9 10 mph 1017.4mb 67f 65f
2:48 9 10 mph 1017.5mb 67f 65f
2:42 7 9 mph 1017.6mb 67f 65f
2:36 7 9 mph 1017.7mb 67f 65f
2:30 7 9 mph 1017.7mb 67f 65f
2:24 6 7 mph 1017.7mb 67f 65f
2:18 6 8 mph 1017.8mb 67f 65f
2:12 7 8 mph 1017.8mb 67f 64f
2:06 5 7 mph 1017.9mb 67f 65f
2:00 5 6 mph 1017.9mb 68f 64f
1:54 5 7 mph 1018mb 68f 64f
1:48 6 7 mph 1018mb 68f 64f
1:42 5 6 mph 1018.1mb 68f 64f
1:36 5 6 mph 1018.1mb 67f 64f
1:30 3 6 mph 1018.2mb 68f 65f
1:24 5 7 mph 1018.2mb 68f 64f
1:18 6 7 mph 1018.2mb 68f 64f
1:12 5 6 mph 1018.2mb 69f 64f
1:06 3 5 mph 1018.1mb 69f 64f
1:00 3 5 mph 1018.1mb 69f 64f
12:54 2 6 mph 1018.1mb 69f 64f
12:48 3 6 mph 1018.2mb 69f 64f
12:42 3 6 mph 1018.2mb 69f 64f
12:36 5 6 mph 1018.2mb 69f 63f
12:30 6 7 mph 1018.3mb 69f 63f
12:24 5 6 mph 1018.3mb 69f 64f
12:18 3 5 mph 1018.3mb 69f 63f
12:12 5 6 mph 1018.2mb 70f 63f
12:06 3 5 mph 1018.2mb 70f 63f
12:00 5 7 mph 1018.3mb 70f 62f
11:54 5 6 mph 1018.2mb 69f 63f
11:48 2 3 mph 1018.2mb 69f 63f
11:42 2 3 mph 1018.3mb 69f 63f
11:36 3
mph
1018.3mb 69f 63f
11:30 2 3 mph 1018.3mb 69f 63f
11:24 2 5 mph 1018.3mb 69f 63f
11:18 5
mph
1018.4mb 69f 62f
11:12 3 5 mph 1018.4mb 70f 62f
11:06 2 3 mph 1018.5mb 69f 62f
11:00 1 5 mph 1018.6mb 69f 62f
10:54 1 5 mph 1018.5mb 69f 62f
10:48 2 5 mph 1018.5mb 69f 61f
10:42 1 5 mph 1018.7mb 70f 61f
10:36 3 5 mph 1018.8mb 70f 61f
10:30 3 5 mph 1018.7mb 70f 61f
10:24 3 6 mph 1018.7mb 70f 61f
10:18  -  6 mph 1018.7mb 70f 61f
10:12  -  7 mph 1018.6mb 70f 61f
10:06 6 8 mph 1018.5mb 69f 60f
10:00 2 6 mph 1018.5mb 69f 60f
9:54 2 7 mph 1018.5mb 69f 60f
9:48 1 2 mph 1018.5mb 69f 60f
9:42 2 7 mph 1018.5mb 69f 60f
9:36 3 6 mph 1018.5mb 69f 59f
9:30 2 6 mph 1018.5mb 69f 60f
9:24 2 5 mph 1018.5mb 69f 60f
9:18 3 6 mph 1018.5mb 69f 59f
9:12 6 7 mph 1018.4mb 69f 59f
9:06 1 5 mph 1018.5mb 69f 59f
9:00 3 7 mph 1018.5mb 69f 59f
8:54 3 6 mph 1018.5mb 69f 59f
8:48 5 8 mph 1018.5mb 69f 58f
8:42 5 7 mph 1018.5mb 69f 59f
8:36 5 6 mph 1018.5mb 69f 58f
8:30 2 7 mph 1018.5mb 68f 58f
8:24 6 8 mph 1018.5mb 68f 58f
8:18 2 5 mph 1018.5mb 68f 58f
8:12 1 3 mph 1018.4mb 68f 58f
8:06  -  5 mph 1018.5mb 68f 58f
8:00 1 5 mph 1018.5mb 68f 58f
7:54 3 7 mph 1018.5mb 68f 58f
7:48 3 7 mph 1018.6mb 68f 58f
7:42 5 6 mph 1018.5mb 68f 58f
7:36  -  1 mph 1018.4mb 68f 58f
7:30 2
mph
1018.4mb 68f 58f
7:24 1 3 mph 1018.3mb 68f 58f
7:18 1 2 mph 1018.2mb 68f 58f
7:12 1 3 mph 1018.2mb 68f 57f
7:06 2 5 mph 1018.1mb 68f 57f
7:00 2 5 mph 1018.1mb 68f 57f
6:54 3 5 mph 1018mb 68f 57f
6:48 5
mph
1018mb 68f 57f
6:42 3 5 mph 1017.9mb 68f 57f
6:36 2 3 mph 1017.8mb 68f 57f
6:30 2 5 mph 1017.8mb 68f 57f
6:24 3 6 mph 1017.8mb 68f 58f
6:18 3 5 mph 1017.9mb 68f 58f
6:12 2 3 mph 1017.9mb 68f 57f
6:06 3 5 mph 1017.9mb 68f 57f
6:00 3
mph
1017.8mb 68f 57f
5:54 2 3 mph 1017.9mb 68f 57f
5:48 3
mph
1017.9mb 68f 57f
5:42 2
mph
1017.7mb 69f 57f
5:36 2 6 mph 1017.8mb 69f 57f
5:30 3 6 mph 1017.8mb 69f 58f
5:24 1 6 mph 1017.9mb 69f 59f
5:18 2 6 mph 1017.9mb 69f 59f
5:12 2 5 mph 1017.9mb 69f 59f
5:06 3 6 mph 1017.9mb 69f 59f
5:00 3 5 mph 1017.9mb 69f 59f
4:54 6 7 mph 1017.9mb 69f 59f
4:48 7 8 mph 1018mb 69f 59f
4:42 6 9 mph 1018mb 69f 59f
4:36 5 8 mph 1018mb 69f 59f
4:30 5 10 mph 1018.1mb 69f 59f
4:24 7 10 mph 1018mb 69f 59f
4:18 5 9 mph 1018.1mb 69f 59f
4:12 7 11 mph 1018.1mb 69f 60f
4:06 8 10 mph 1018.2mb 69f 59f
4:00 7 11 mph 1018.1mb 69f 59f
3:54 9 13 mph 1018.1mb 69f 59f
3:48 9 13 mph 1018.1mb 69f 59f
3:42 9 13 mph 1018.1mb 69f 60f
3:36 9 11 mph 1018mb 69f 60f
3:30 9 11 mph 1018.1mb 69f 60f
3:24 6 9 mph 1018.1mb 69f 60f
3:18 7 9 mph 1018.2mb 69f 60f
3:12 6 10 mph 1018.3mb 69f 60f
3:06 7 9 mph 1018.3mb 68f 60f
3:00 6 9 mph 1018.3mb 69f 60f
2:54 5 8 mph 1018.3mb 68f 60f
2:48 5 9 mph 1018.3mb 68f 60f
2:42 6 10 mph 1018.3mb 68f 60f
2:36 8 13 mph 1018.3mb 68f 60f
2:30 7 10 mph 1018.3mb 68f 60f
2:24 9 15 mph 1018.4mb 68f 60f
2:18 7 10 mph 1018.4mb 68f 60f
2:12 7 9 mph 1018.4mb 68f 60f
2:06 9 14 mph 1018.4mb 68f 60f
2:00 9 11 mph 1018.4mb 68f 60f
1:54 6 10 mph 1018.4mb 68f 60f
1:48 9 11 mph 1018.3mb 68f 60f
1:42 6 9 mph 1018.3mb 68f 60f
1:36 6 9 mph 1018.2mb 68f 60f
1:30 6 8 mph 1018.2mb 68f 60f
1:24 5 9 mph 1018.2mb 68f 60f
1:18 7 10 mph 1018.1mb 68f 60f
1:12 7 10 mph 1018.2mb 68f 60f
1:06 7 10 mph 1018.1mb 69f 60f
1:00 5 13 mph 1018.2mb 69f 60f
12:54 7 10 mph 1018.3mb 69f 60f
12:48 8 10 mph 1018.3mb 69f 60f
12:42 9 11 mph 1018.2mb 69f 60f
12:36 9 11 mph 1018.2mb 69f 60f
12:30 7 10 mph 1018.2mb 69f 60f
12:24 7 9 mph 1018.2mb 69f 60f
12:18 6 10 mph 1018.2mb 68f 60f
12:12 6 8 mph 1018.2mb 67f 60f
12:06 6 9 mph 1018.2mb 67f 60f
12:00 8 10 mph 1018.3mb 67f 60f
mer. 08/20 11:54 9 11 mph 1018.2mb 67f 60f
11:48 8 11 mph 1018.2mb 67f 60f
11:42 9 11 mph 1018.2mb 67f 60f
11:36 10 14 mph 1018.2mb 67f 60f
11:30 10 14 mph 1018.2mb 67f 60f
11:24 11 13 mph 1018.3mb 68f 61f
11:18 10 13 mph 1018.2mb 68f 61f
11:12 10 13 mph 1018.1mb 69f 61f
11:06 10 13 mph 1018.1mb 69f 61f
11:00 9 11 mph 1018.1mb 69f 61f
10:54 8 11 mph 1018mb 69f 61f
10:48 9 14 mph 1018mb 69f 61f
10:42 9 11 mph 1017.9mb 69f 61f
10:36 7 10 mph 1017.9mb 69f 61f
10:30 8 11 mph 1018mb 69f 62f
10:24 8 13 mph 1017.9mb 69f 62f
10:18 10 14 mph 1018mb 69f 62f
10:12 8 11 mph 1018mb 70f 62f
10:06 7 8 mph 1017.9mb 70f 62f
10:00 7 9 mph 1017.9mb 70f 62f
9:54 7 8 mph 1017.9mb 70f 62f
9:48 7 8 mph 1017.9mb 70f 62f
9:42 7 10 mph 1017.9mb 70f 62f
9:36 8 11 mph 1017.9mb 70f 62f
9:30 8 11 mph 1017.8mb 70f 62f
9:24 7 9 mph 1017.8mb 71f 63f
9:18 8 10 mph 1017.7mb 71f 62f
9:12 7 9 mph 1017.7mb 71f 62f
9:06 6 9 mph 1017.7mb 71f 63f
9:00 7 9 mph 1017.7mb 71f 63f
8:54 7 9 mph 1017.6mb 71f 63f
8:48 7 10 mph 1017.6mb 71f 63f
8:42 8 10 mph 1017.6mb 71f 63f
8:36 7 11 mph 1017.5mb 71f 63f
8:30 7 10 mph 1017.4mb 71f 63f
8:24 7 9 mph 1017.4mb 71f 63f
8:18 8 10 mph 1017.5mb 71f 63f
8:12 8 11 mph 1017.5mb 71f 63f
8:06 9 14 mph 1017.5mb 71f 63f
8:00 11 13 mph 1017.4mb 70f 63f
7:54 8 13 mph 1017.4mb 70f 63f
7:48 9 14 mph 1017.4mb 70f 64f
7:42 10 13 mph 1017.4mb 70f 64f
7:36 11 13 mph 1017.4mb 70f 64f
7:30 10 13 mph 1017.5mb 70f 64f
7:24 11 14 mph 1017.4mb 70f 64f
7:18 10 14 mph 1017.5mb 70f 64f
7:12 13 15 mph 1017.4mb 70f 64f
7:06 9 14 mph 1017.4mb 70f 64f
7:00 11 14 mph 1017.4mb 70f 64f
6:54 9 14 mph 1017.3mb 70f 64f
6:48 8 11 mph 1017.3mb 70f 64f
6:42 10 14 mph 1017.3mb 70f 64f
6:36 9 15 mph 1017.4mb 70f 63f
6:30 11 14 mph 1017.5mb 69f 64f
6:24 10 14 mph 1017.5mb 68f 64f
6:18 13 15 mph 1017.5mb 68f 64f
6:12 11 14 mph 1017.6mb 68f 64f
6:06 11 16 mph 1017.6mb 67f 64f
6:00 10 14 mph 1017.6mb 68f 64f
5:54 10 14 mph 1017.6mb 70f 64f
5:48 10 13 mph 1017.7mb 70f 64f
5:42 10 14 mph 1017.7mb 71f 64f
5:36 11 14 mph 1017.7mb 71f 64f
5:30 11 15 mph 1017.6mb 71f 64f
5:24 13 16 mph 1017.7mb 71f 64f
5:18 14 16 mph 1017.6mb 71f 64f
5:12 11 16 mph 1017.7mb 71f 64f
5:06 13 17 mph 1017.7mb 71f 64f
5:00 13 15 mph 1017.7mb 71f 64f
4:54 14 16 mph 1017.7mb 71f 64f
4:48 13 16 mph 1017.7mb 71f 64f
4:42 13 15 mph 1017.6mb 71f 64f
4:36 13 15 mph 1017.6mb 71f 64f
4:30 11 14 mph 1017.5mb 71f 64f
4:24 11 15 mph 1017.4mb 71f 65f
4:18 11 14 mph 1017.4mb 71f 65f
4:12 10 15 mph 1017.4mb 71f 64f
4:06 13 15 mph 1017.4mb 71f 64f
4:00 13 14 mph 1017.4mb 71f 64f
3:54 11 14 mph 1017.5mb 71f 65f
3:48 13 15 mph 1017.5mb 71f 65f
3:42 13 16 mph 1017.6mb 71f 64f
3:36 13 15 mph 1017.6mb 71f 65f
3:30 10 14 mph 1017.6mb 71f 65f
3:24 10 13 mph 1017.6mb 71f 65f
3:18 10 14 mph 1017.6mb 71f 64f
3:12 13 14 mph 1017.7mb 70f 64f
3:06 13 15 mph 1017.6mb 69f 64f
3:00 11 14 mph 1017.6mb 68f 64f
2:54 13 15 mph 1017.6mb 70f 64f
2:48 11 15 mph 1017.7mb 70f 64f
2:42 10 13 mph 1017.7mb 70f 64f
2:36 10 14 mph 1017.8mb 68f 64f
2:30 13 14 mph 1017.8mb 69f 64f
2:24 13 15 mph 1017.8mb 68f 64f
2:18 11 14 mph 1017.8mb 68f 64f
2:12 13 14 mph 1017.7mb 67f 64f
2:06 11 14 mph 1017.7mb 67f 64f
2:00 9 13 mph 1017.5mb 66f 64f
1:54 10 13 mph 1017.5mb 67f 64f
1:48 9 13 mph 1017.5mb 67f 64f
1:42 8 10 mph 1017.7mb 67f 64f
1:36 9 13 mph 1017.7mb 67f 63f
1:30 11 14 mph 1017.7mb 67f 63f
1:24 9 14 mph 1017.8mb 67f 64f
1:18 6 13 mph 1017.7mb 67f 63f
1:12 10 15 mph 1017.8mb 67f 64f
1:06 11 14 mph 1017.7mb 67f 63f
1:00 13 15 mph 1017.6mb 68f 63f
12:54 11 15 mph 1017.5mb 68f 64f
12:48 13 15 mph 1017.5mb 69f 63f
12:42 14 17 mph 1017.5mb 69f 63f
12:36 14 17 mph 1017.5mb 69f 63f
12:30 14 16 mph 1017.5mb 69f 63f
12:24 13 17 mph 1017.3mb 69f 63f
12:18 13 16 mph 1017.2mb 69f 63f
12:12 13 17 mph 1017.1mb 69f 63f
12:06 11 15 mph 1017.1mb 69f 63f
12:00 10 15 mph 1017mb 69f 63f
11:54 11 14 mph 1017mb 69f 63f
11:48 13 16 mph 1016.9mb 69f 63f
11:42 13 14 mph 1016.9mb 69f 63f
11:36 11 15 mph 1016.9mb 70f 62f
11:30 10 14 mph 1016.9mb 70f 63f
11:24 10 14 mph 1016.8mb 70f 62f
11:18 10 14 mph 1016.8mb 70f 63f
11:12 10 13 mph 1016.7mb 70f 63f
11:06 8 14 mph 1016.6mb 70f 63f
11:00 11 14 mph 1016.6mb 70f 63f
10:54 10 13 mph 1016.5mb 70f 63f
10:48 9 13 mph 1016.4mb 70f 63f
10:42 7 10 mph 1016.5mb 70f 63f
10:36 8 10 mph 1016.4mb 70f 63f
10:30 8 13 mph 1016.4mb 70f 63f
10:24 9 13 mph 1016.3mb 70f 62f
10:18 8 10 mph 1016.3mb 70f 62f
10:12 9 10 mph 1016.3mb 70f 62f
10:06 8 10 mph 1016.3mb 70f 62f
10:00 6 11 mph 1016.3mb 70f 62f
9:54 7 11 mph 1016.3mb 70f 62f
9:48 9 11 mph 1016.2mb 70f 62f
9:42 8 13 mph 1016.2mb 70f 62f
9:36 8 11 mph 1016.1mb 70f 62f
9:30 6 9 mph 1016mb 70f 62f
9:24 6 9 mph 1016mb 70f 61f
9:18 6 10 mph 1016mb 70f 61f
9:12 7 9 mph 1016.1mb 70f 61f
9:06 7 8 mph 1016.1mb 70f 61f
9:00 7 10 mph 1016mb 70f 61f
8:54 8 10 mph 1015.9mb 70f 61f
8:48 7 8 mph 1015.9mb 70f 61f
8:42 6 9 mph 1015.9mb 70f 61f
8:36 7 10 mph 1015.9mb 70f 61f
8:30 7 9 mph 1015.8mb 70f 61f
8:24 6 8 mph 1015.8mb 69f 61f
8:18 6 7 mph 1015.7mb 69f 61f
8:12 6
mph
1015.7mb 69f 61f
8:06 5 7 mph 1015.7mb 69f 60f
8:00 5 7 mph 1015.6mb 69f 60f
7:54 6
mph
1015.5mb 69f 60f
7:48 6 8 mph 1015.5mb 69f 60f
7:42 6 8 mph 1015.4mb 69f 60f
7:36 6 8 mph 1015.3mb 69f 60f
7:30 6 7 mph 1015.3mb 69f 60f
7:24 3 6 mph 1015.2mb 69f 59f
7:18 2 3 mph 1015.2mb 69f 59f
7:12 2 6 mph 1015.1mb 69f 59f
7:06 3 5 mph 1015.1mb 69f 59f
7:00 3 5 mph 1015.1mb 68f 59f
6:54 2 3 mph 1015.1mb 69f 59f
6:48 2 3 mph 1015.1mb 69f 59f
6:42 2
mph
1015mb 69f 59f
6:36 2 3 mph 1015mb 69f 59f
6:30 2 5 mph 1015mb 69f 59f
6:24 3 5 mph 1014.9mb 69f 59f
6:18 2 6 mph 1015mb 68f 59f
6:12 3 5 mph 1015.1mb 68f 60f
6:06 3 6 mph 1015mb 68f 60f
6:00 5 6 mph 1015mb 68f 60f
5:54 3 6 mph 1014.9mb 68f 60f
5:48 5 6 mph 1014.9mb 68f 59f
5:42 5 6 mph 1014.8mb 68f 59f
5:36 5 6 mph 1014.7mb 68f 60f
5:30 6
mph
1014.6mb 68f 60f
5:24 5 6 mph 1014.6mb 69f 60f
5:18 5 7 mph 1014.5mb 69f 60f
5:12 5 6 mph 1014.4mb 68f 60f
5:06 5 6 mph 1014.4mb 69f 60f
5:00 3 5 mph 1014.4mb 69f 60f
4:54 3 5 mph 1014.4mb 69f 60f
4:48 3 5 mph 1014.3mb 69f 60f
4:42 2 8 mph 1014.3mb 69f 60f
4:36 7 9 mph 1014.3mb 69f 61f
4:30 6 8 mph 1014.2mb 69f 62f
4:24 6 8 mph 1014.2mb 69f 61f
4:18 6 10 mph 1014.1mb 69f 61f
4:12 7 10 mph 1014.1mb 69f 62f
4:06 8 9 mph 1014.2mb 69f 61f
4:00 7 11 mph 1014.2mb 69f 61f
3:54 10 13 mph 1014.3mb 69f 61f
3:48 9 11 mph 1014.3mb 69f 61f
3:42 10 13 mph 1014.2mb 69f 61f
3:36 8 10 mph 1014.2mb 69f 62f
3:30 8 10 mph 1014.3mb 69f 62f
3:24 7 9 mph 1014.2mb 69f 61f
3:18 7 11 mph 1014.2mb 69f 61f
3:12 7 9 mph 1014.1mb 69f 61f
3:06 9 10 mph 1014.1mb 69f 61f
3:00 8 10 mph 1014.1mb 69f 61f
2:54 7 10 mph 1014.1mb 69f 61f
2:48 8 10 mph 1014.1mb 69f 61f
2:42 7 10 mph 1014.1mb 68f 61f
2:36 8 10 mph 1014mb 68f 61f
2:30 8 10 mph 1014mb 69f 61f
2:24 8 11 mph 1013.9mb 69f 61f
2:18 7 11 mph 1013.9mb 69f 61f
2:12 9 11 mph 1014mb 69f 61f
2:06 8 11 mph 1014.2mb 69f 61f
2:00 9 13 mph 1014.2mb 69f 61f
1:54 8 11 mph 1014.2mb 69f 62f
1:48 6 9 mph 1014.1mb 69f 62f
1:42 10 11 mph 1014mb 69f 62f
1:36 9 11 mph 1014mb 68f 62f
1:30 9 11 mph 1013.9mb 68f 62f
1:24 7 11 mph 1013.9mb 68f 62f
1:18 7 11 mph 1013.8mb 68f 62f
1:12 8 11 mph 1013.9mb 68f 62f
1:06 8 11 mph 1013.9mb 68f 62f
1:00 8 14 mph 1013.9mb 66f 62f
12:54 9 13 mph 1013.9mb 67f 62f
12:48 9 11 mph 1013.9mb 68f 62f
12:42 8 10 mph 1013.9mb 68f 62f
12:36 8 10 mph 1013.8mb 68f 62f
12:30 6 9 mph 1013.8mb 68f 62f
12:24 8 10 mph 1013.8mb 68f 62f
12:18 6 8 mph 1013.8mb 69f 62f
12:12 6 7 mph 1013.8mb 69f 62f
12:06 5 8 mph 1013.8mb 69f 62f
12:00 5 7 mph 1013.8mb 69f 62f
mar. 08/19 11:54 6 7 mph 1013.8mb 69f 62f
11:48 6 8 mph 1013.8mb 69f 62f
11:42 6 9 mph 1013.8mb 69f 62f
11:36 7 8 mph 1013.8mb 70f 62f
11:30 7 9 mph 1013.8mb 70f 62f
11:24 8 9 mph 1013.7mb 69f 62f
11:18 8 13 mph 1013.7mb 69f 62f
11:12 7 10 mph 1013.7mb 69f 62f
11:06 7 10 mph 1013.8mb 69f 62f
11:00 7 10 mph 1013.8mb 69f 62f
10:54 7 10 mph 1013.8mb 68f 62f
10:48 7 9 mph 1013.7mb 68f 62f
10:42 6 8 mph 1013.8mb 68f 62f
10:36 7 8 mph 1013.8mb 68f 62f
10:30 6 10 mph 1013.7mb 68f 62f
10:24 6 9 mph 1013.7mb 68f 62f
10:18 7 9 mph 1013.7mb 68f 62f
10:12 7 9 mph 1013.7mb 69f 62f
10:06 6 9 mph 1013.7mb 69f 62f
10:00 7 10 mph 1013.7mb 69f 62f
9:54 7 11 mph 1013.7mb 69f 62f
9:48 7 10 mph 1013.7mb 69f 63f
9:42 7 9 mph 1013.7mb 69f 63f
9:36 6 8 mph 1013.8mb 70f 63f
9:30 7 8 mph 1013.8mb 70f 63f
9:24 7 9 mph 1013.8mb 70f 63f
9:18 8 9 mph 1013.7mb 70f -
9:12 6 10 mph 1013.6mb 70f -
9:06 9 11 mph 1013.6mb 70f -
9:00 9 13 mph 1013.6mb 71f 64f
8:54 9 11 mph 1013.5mb 71f 64f
8:48 8 13 mph 1013.5mb 71f 64f
8:42 9 11 mph 1013.4mb 71f 64f
8:36 8 11 mph 1013.4mb 71f 64f
8:30 8 10 mph 1013.4mb 72f 64f
8:24 6 8 mph 1013.4mb 72f 64f
8:18 8 10 mph 1013.4mb 72f 64f
8:12 8 11 mph 1013.4mb 72f 64f
8:06 7 9 mph 1013.4mb 72f 64f
8:00 8 13 mph 1013.5mb 72f 64f
7:54 9 14 mph 1013.5mb 72f 64f
7:48 9 11 mph 1013.4mb 72f 65f
7:42 9 11 mph 1013.4mb 72f 65f
7:36 11 14 mph 1013.5mb 71f 65f
7:30 11 14 mph 1013.5mb 71f 64f
7:24 11 14 mph 1013.5mb 71f 65f
7:18 11 14 mph 1013.5mb 71f 65f
7:12 13 14 mph 1013.5mb 71f 64f
7:06 13 15 mph 1013.5mb 71f 64f
7:00 14 15 mph 1013.5mb 71f 64f
6:54 13 16 mph 1013.5mb 71f 64f
6:48 13 15 mph 1013.5mb 71f 65f
6:42 13 14 mph 1013.4mb 71f 65f
6:36 13 15 mph 1013.4mb 72f 65f
6:30 11 15 mph 1013.5mb 72f 65f
6:24 14 16 mph 1013.5mb 72f 64f
6:18 11 15 mph 1013.5mb 72f 65f
6:12 13 16 mph 1013.5mb 72f 65f
6:06 13 15 mph 1013.5mb 72f 65f
6:00 13 16 mph 1013.6mb 72f 65f
5:54 14 15 mph 1013.5mb 72f 65f
5:48 14 15 mph 1013.6mb 72f 65f
5:42 14 16 mph 1013.6mb 72f 65f
5:36 13 15 mph 1013.5mb 72f 65f
5:30 13 16 mph 1013.6mb 72f 65f
5:24 14 15 mph 1013.5mb 71f 65f
5:18 14 16 mph 1013.6mb 71f 64f
5:12 13 15 mph 1013.6mb 71f 64f
5:06 11 14 mph 1013.7mb 71f 64f
5:00 11 14 mph 1013.8mb 70f 64f
4:54 13 16 mph 1013.7mb 70f 64f
4:48 14 16 mph 1013.7mb 70f 63f
4:42 13 15 mph 1013.7mb 70f 63f
4:36 14 16 mph 1013.7mb 70f 63f
4:30 14 16 mph 1013.7mb 70f 63f
4:24 14 16 mph 1013.7mb 70f 64f
4:18 13 17 mph 1013.7mb 71f 64f
4:12 14 16 mph 1013.7mb 70f 64f
4:06 13 17 mph 1013.7mb 71f 64f
4:00 14 16 mph 1013.7mb 71f 64f
3:54 14 17 mph 1013.8mb 70f 64f
3:48 15 16 mph 1013.8mb 70f 64f
3:42 13 18 mph 1013.8mb 70f 64f
3:36 11 16 mph 1013.9mb 70f 65f
3:30 13 16 mph 1013.9mb 71f 64f
3:24 15 16 mph 1013.9mb 71f 64f
3:18 15 16 mph 1013.8mb 71f 64f
3:12 14 16 mph 1013.8mb 71f 64f
3:06 14 16 mph 1013.8mb 71f 64f
3:00 14 16 mph 1013.8mb 71f 64f
2:54 11 15 mph 1013.9mb 71f 64f
2:48 14 15 mph 1013.9mb 71f 64f
2:42 10 14 mph 1014mb 71f 64f
2:36 11 14 mph 1014mb 71f 64f
2:30 11 14 mph 1014mb 70f 64f
2:24 11 14 mph 1014.1mb 69f 64f
2:18 11 13 mph 1014.1mb 70f 64f
2:12 11 14 mph 1014.1mb 70f 64f
2:06 13 15 mph 1014.1mb 70f 63f
2:00 9 14 mph 1014.2mb 71f 63f
1:54 11 14 mph 1014.2mb 69f 63f
1:48 11 14 mph 1014.1mb 68f 63f
1:42 13 15 mph 1014mb 68f 63f
1:36 13 15 mph 1014mb 70f 63f
1:30 13 16 mph 1014.1mb 70f 64f
1:24 14 17 mph 1014.1mb 67f 63f
1:18 14 16 mph 1014.1mb 67f 63f
1:12 14 15 mph 1014mb 67f 64f
1:06 14 15 mph 1014mb 68f 63f
1:00 14 16 mph 1014mb 68f 63f
12:54 10 14 mph 1014mb 69f 64f
12:48 13 15 mph 1014mb 70f 64f
12:42 11 14 mph 1013.9mb 70f 64f
12:36 10 14 mph 1014mb 70f 64f
12:30 11 14 mph 1014.1mb 70f 64f
12:24 10 16 mph 1014.1mb 70f 64f
12:18 10 15 mph 1014mb 70f 64f
12:12 11 15 mph 1014mb 70f 64f
12:06 9 14 mph 1014mb 70f 64f
12:00 10 14 mph 1013.9mb 69f 63f
11:54 9 11 mph 1013.9mb 69f 63f
11:48 10 11 mph 1013.8mb 69f 63f
11:42 6 9 mph 1013.8mb 69f 63f
11:36 6 7 mph 1013.9mb 69f 63f
11:30 3 6 mph 1013.8mb 70f 63f
11:24 5 8 mph 1013.8mb 69f 63f
11:18 5 8 mph 1013.9mb 70f 63f
11:12 3 6 mph 1013.8mb 70f 63f
11:06 6 7 mph 1013.8mb 70f 63f
11:00 6 8 mph 1013.7mb 70f 62f
10:54 6 9 mph 1013.7mb 70f 62f
10:48 6 10 mph 1013.7mb 70f 62f
10:42 8 10 mph 1013.8mb 70f 62f
10:36 8 9 mph 1013.9mb 70f 62f
10:30 8 13 mph 1013.9mb 70f 62f
10:24 9 14 mph 1014mb 71f 62f
10:18 9 10 mph 1013.8mb 71f 62f
10:12 7 10 mph 1013.7mb 71f 62f
10:06 7 10 mph 1013.6mb 71f 61f
10:00 9 10 mph 1013.6mb 71f 62f
9:54 7 8 mph 1013.7mb 71f 62f
9:48 8 10 mph 1013.6mb 71f 61f
9:42 6 10 mph 1013.6mb 71f 62f
9:36 8 9 mph 1013.5mb 71f 61f
9:30 6 10 mph 1013.5mb 71f 61f
9:24 7 9 mph 1013.5mb 71f 62f
9:18 6 9 mph 1013.4mb 71f 61f
9:12 7 11 mph 1013.3mb 71f 61f
9:06 8 9 mph 1013.3mb 71f 61f
9:00 8 9 mph 1013.3mb 71f 61f
8:54 7 10 mph 1013.3mb 71f 61f
8:48 6 8 mph 1013.2mb 71f 61f
8:42 7 11 mph 1013.2mb 71f 61f
8:36 7 11 mph 1013.2mb 71f 62f
8:30 8 10 mph 1013.1mb 71f 61f
8:24 7 8 mph 1013.1mb 71f 62f
8:18 6 8 mph 1012.9mb 71f 61f
8:12 6 10 mph 1012.9mb 71f 61f
8:06 6 8 mph 1012.9mb 71f 61f
8:00 7 9 mph 1012.9mb 71f 61f
7:54 6 7 mph 1012.8mb 71f 61f
7:48 6 8 mph 1012.8mb 71f 61f
7:42 7 8 mph 1012.8mb 71f 61f
7:36 6 9 mph 1012.8mb 71f 60f
7:30 7 11 mph 1012.8mb 71f 61f
7:24 6 8 mph 1012.8mb 71f 60f
7:18 5 8 mph 1012.7mb 71f 61f
7:12 6 10 mph 1012.7mb 70f 61f
7:06 7 10 mph 1012.6mb 70f 60f
7:00 7 9 mph 1012.6mb 70f 60f
6:54 5 7 mph 1012.4mb 70f 60f
6:48 6 7 mph 1012.4mb 70f 60f
6:42 5 6 mph 1012.3mb 70f 60f
6:36 5 6 mph 1012.4mb 70f 60f
6:30 5 6 mph 1012.4mb 70f 60f
6:24 5 6 mph 1012.3mb 70f 60f
6:18 5 6 mph 1012.3mb 70f 60f
6:12 3 7 mph 1012.2mb 70f 60f
6:06 5 6 mph 1012.2mb 70f 60f
6:00 3 5 mph 1012.2mb 70f 60f
5:54 5 7 mph 1012.2mb 70f 60f
5:48 7 9 mph 1012.3mb 70f 60f
5:42 6 7 mph 1012.4mb 70f 60f
5:36 6 7 mph 1012.4mb 70f 60f
5:30 8 9 mph 1012.4mb 70f 60f
5:24 7 9 mph 1012.4mb 70f 60f
5:18 9 10 mph 1012.3mb 70f 60f
5:12 6 7 mph 1012.4mb 70f 60f
5:06 6 10 mph 1012.3mb 69f 61f
5:00 6 8 mph 1012.3mb 69f 61f
4:54 6 8 mph 1012.3mb 69f 61f
4:48 6 9 mph 1012.4mb 69f 61f
4:42 6 10 mph 1012.4mb 69f 61f
4:36 7 11 mph 1012.3mb 69f 61f
4:30 6 11 mph 1012.3mb 69f 60f
4:24 10 13 mph 1012.6mb 69f 61f
4:18 10 13 mph 1012.6mb 69f 61f
4:12 7 11 mph 1012.5mb 69f 61f
4:06 9 14 mph 1012.5mb 69f 60f
4:00 11 15 mph 1012.5mb 69f 60f
3:54 11 14 mph 1012.5mb 69f 60f
3:48 13 15 mph 1012.4mb 69f 60f
3:42 14 15 mph 1012.4mb 69f 61f
3:36 8 13 mph 1012.3mb 69f 61f
3:30 15 20 mph 1012.4mb 69f 60f
3:24 13 17 mph 1012.5mb 69f 60f
3:18 15 18 mph 1012.5mb 69f 60f
3:12 11 16 mph 1012.5mb 70f 60f
3:06 9 13 mph 1012.5mb 70f 60f
3:00 8 13 mph 1012.3mb 70f 60f
2:54 9 13 mph 1012.4mb 70f 60f
2:48 10 14 mph 1012.5mb 69f 60f
2:42 10 14 mph 1012.4mb 69f 60f
2:36 10 14 mph 1012.3mb 69f 60f
2:30 11 14 mph 1012.4mb 69f 60f
2:24 13 16 mph 1012.4mb 69f 60f
2:18 13 15 mph 1012.2mb 69f 60f
2:12 11 15 mph 1012.3mb 69f 60f
2:06 11 15 mph 1012.3mb 69f 60f
2:00 11 16 mph 1012.4mb 69f 61f
1:54 14 16 mph 1012.5mb 69f 60f
1:48 15 18 mph 1012.4mb 68f 60f
1:42 14 16 mph 1012.5mb 68f 61f
1:36 15 17 mph 1012.4mb 68f 61f
1:30 13 16 mph 1012.4mb 68f 61f
1:24 13 15 mph 1012.3mb 68f 61f
1:18 10 11 mph 1012.4mb 68f 60f
1:12 9 11 mph 1012.4mb 69f 61f
1:06 9 13 mph 1012.5mb 69f 61f
1:00 2 3 mph 1012.5mb 68f 61f
12:54 2 5 mph 1012.4mb 69f 61f
12:48 3 5 mph 1012.3mb 69f 61f
12:42 3 6 mph 1012.3mb 69f 61f
12:36  -  3 mph 1012.4mb 69f 63f
12:30 3 6 mph 1012.4mb 69f 63f
12:24 5 9 mph 1012.5mb 68f 63f
12:18 9 14 mph 1012.5mb 68f 62f
12:12 11 15 mph 1012.5mb 68f 63f
12:06 11 13 mph 1012.4mb 68f 62f
12:00 10 16 mph 1012.3mb 68f 62f
lun. 08/18 11:54 14 16 mph 1012.4mb 67f 62f
11:48 13 20 mph 1012.4mb 67f 62f
11:42 17 22 mph 1012.4mb 67f 61f
11:36 14 18 mph 1012.4mb 68f 62f
11:30 14 17 mph 1012.5mb 69f 61f
11:24 13 16 mph 1012.6mb 69f 61f
11:18 10 13 mph 1012.5mb 69f 61f
11:12 9 11 mph 1012.4mb 70f 61f
11:06 9 13 mph 1012.4mb 70f 61f
11:00 11 14 mph 1012.6mb 70f 62f
10:54 13 14 mph 1012.5mb 71f 62f
10:48 11 14 mph 1012.5mb 71f 62f
10:42 9 13 mph 1012.4mb 70f 62f
10:36 9 14 mph 1012.4mb 70f 62f
10:30 11 14 mph 1012.6mb 69f 62f
10:24 10 13 mph 1012.6mb 69f 62f
10:18 9 14 mph 1012.5mb 69f 62f
10:12 10 15 mph 1012.6mb 69f 62f
10:06 14 16 mph 1012.6mb 70f 63f
10:00 6 11 mph 1012.6mb 70f 63f
9:54 2 5 mph 1012.5mb 70f 63f
9:48 6 7 mph 1012.5mb 70f 63f
9:42 6
mph
1012.6mb 70f 63f
9:36 6 11 mph 1012.7mb 70f 63f
9:30 9 14 mph 1012.9mb 69f 63f
9:24 11 15 mph 1012.9mb 69f 63f
9:18 13 17 mph 1012.9mb 69f 63f
9:12 13 17 mph 1013mb 68f 64f
9:06 15 18 mph 1012.9mb 68f 64f
9:00 15 18 mph 1012.9mb 68f 65f
8:54 15 17 mph 1012.7mb 69f 65f
8:48 5 8 mph 1012.5mb 70f 66f
8:42 3 7 mph 1012.4mb 70f 66f
8:36 6 7 mph 1012.3mb 71f 66f
8:30 6 7 mph 1012.3mb 71f 67f
8:24 5 7 mph 1012.3mb 71f 67f
8:18 7 8 mph 1012.3mb 71f 67f
8:12  -  3 mph 1012.4mb 71f 68f
8:06 1 3 mph 1012.4mb 71f 68f
8:00 2 6 mph 1012.4mb 72f 69f
7:54 5 6 mph 1012.5mb 73f 68f
7:48 6 9 mph 1012.5mb 73f 67f
7:42 8 14 mph 1012.5mb 73f 67f
7:36 11 15 mph 1012.6mb 73f 66f
7:30 11 14 mph 1012.6mb 73f 66f
7:24 13 16 mph 1012.6mb 73f 66f
7:18 16 18 mph 1012.6mb 73f 66f
7:12 15 18 mph 1012.5mb 73f 67f
7:06 15 17 mph 1012.5mb 73f 67f
7:00 9 10 mph 1012.5mb 73f 69f
6:54 9 11 mph 1012.5mb 73f 69f
6:48 10 13 mph 1012.6mb 73f 69f
6:42 11 14 mph 1012.6mb 73f 69f
6:36 13 17 mph 1012.6mb 73f 69f
6:30 16 22 mph 1012.6mb 73f 69f
6:24 13 15 mph 1012.6mb 73f 72f
6:18 6 8 mph 1012.6mb 73f 74f
6:12 6 8 mph 1012.7mb 73f 74f
6:06 6 9 mph 1012.8mb 73f 73f
6:00 6 7 mph 1012.7mb 73f 73f
5:54 9 16 mph 1012.8mb 73f 73f
5:48 11 15 mph 1012.8mb 73f 72f
5:42 9 13 mph 1012.8mb 73f 74f
5:36 8 10 mph 1012.9mb 73f 74f
5:30 8 10 mph 1012.9mb 72f 74f
5:24 9 11 mph 1012.9mb 72f 74f
5:18 7 9 mph 1012.9mb 72f 74f
5:12 9 10 mph 1012.9mb 72f 74f
5:06 9 11 mph 1012.9mb 72f 74f
5:00 9 10 mph 1012.9mb 72f 74f
4:54 8 10 mph 1012.9mb 72f 74f
4:48 5 7 mph 1012.9mb 72f 75f
4:42 6 7 mph 1012.9mb 72f 76f
4:36 7 8 mph 1012.9mb 71f 76f
4:30 7 13 mph 1013mb 71f 73f
4:24 11 15 mph 1013.1mb 71f 73f
4:18 14 16 mph 1013.1mb 71f 72f
4:12 14 17 mph 1013.1mb 71f 71f
4:06 15 17 mph 1013.2mb 71f 71f
4:00 14 17 mph 1013.2mb 71f 70f
3:54 15 18 mph 1013.2mb 72f 70f
3:48 16 17 mph 1013.3mb 72f 70f
3:42 16 18 mph 1013.3mb 71f 70f
3:36 16 20 mph 1013.4mb 71f 70f
3:30 15 18 mph 1013.5mb 70f 70f
3:24 15 18 mph 1013.5mb 70f 70f
3:18 16 18 mph 1013.6mb 70f 70f
3:12 16 18 mph 1013.6mb 70f 70f
3:06 14 16 mph 1013.7mb 70f 70f
3:00 14 17 mph 1013.7mb 70f 70f
2:54 15 17 mph 1013.8mb 71f 70f
2:48 16 18 mph 1013.8mb 71f 69f
2:42 16 18 mph 1013.8mb 71f 68f
2:36 17 18 mph 1013.9mb 72f 68f
2:30 16 18 mph 1013.9mb 72f 68f
2:24 14 18 mph 1014mb 72f 68f
2:18 16 18 mph 1014.1mb 72f 67f
2:12 16 18 mph 1014.2mb 72f 68f
2:06 15 18 mph 1014.2mb 72f 67f
2:00 15 17 mph 1014.3mb 72f 67f
1:54 15 17 mph 1014.4mb 72f 67f
1:48 14 17 mph 1014.4mb 72f 67f
1:42 14 15 mph 1014.4mb 71f 67f
1:36 15 16 mph 1014.5mb 71f 67f
1:30 15 17 mph 1014.6mb 71f 67f
1:24 14 17 mph 1014.7mb 71f 66f
1:18 11 15 mph 1014.7mb 72f 67f
1:12 13 15 mph 1014.8mb 72f 67f
1:06 11 13 mph 1014.9mb 72f 66f
1:00 10 13 mph 1014.9mb 72f 67f
12:54 10 11 mph 1014.9mb 71f 66f
12:48 8 11 mph 1015mb 71f 67f
12:42 8 9 mph 1015.1mb 71f 67f
12:36 7 8 mph 1015.2mb 71f 67f
12:30 8 10 mph 1015.2mb 71f 66f
12:24 8 9 mph 1015.2mb 71f 65f
12:18 6 8 mph 1015.4mb 70f 65f
12:12 6 7 mph 1015.4mb 70f 65f
12:06 6 7 mph 1015.4mb 70f 64f
12:00 6 7 mph 1015.6mb 69f 63f
11:54 6 8 mph 1015.7mb 69f 63f
11:48 5 7 mph 1015.7mb 70f 62f
11:42 6 7 mph 1015.8mb 70f 61f
11:36 6 8 mph 1015.8mb 70f 61f
11:30 5 8 mph 1015.9mb 70f 61f
11:24 7 8 mph 1015.9mb 69f 60f
11:18 8 10 mph 1015.9mb 69f 60f
11:12 8 10 mph 1016mb 69f 61f
11:06 8 9 mph 1016mb 69f 62f
11:00 6 7 mph 1016mb 69f 62f
10:54 5 6 mph 1016mb 69f 62f
10:48 3 6 mph 1016mb 70f 62f
10:42 2 6 mph 1016.1mb 70f 62f
10:36 3 5 mph 1016.1mb 70f 62f
10:30 3 5 mph 1016.2mb 70f 62f
10:24 3 5 mph 1016.2mb 70f 62f
10:18 1 2 mph 1016.3mb 70f 62f
10:12 3 6 mph 1016.3mb 70f 62f
10:06 2 3 mph 1016.3mb 70f 61f
10:00 2 3 mph 1016.3mb 70f 61f
9:54 2 5 mph 1016.3mb 70f 61f
9:48 3 5 mph 1016.3mb 70f 61f
9:42 2 5 mph 1016.3mb 70f 61f
9:36 3 5 mph 1016.4mb 70f 61f
9:30 2 5 mph 1016.5mb 70f 61f
9:24 2 3 mph 1016.5mb 71f 61f
9:18 2 3 mph 1016.5mb 71f 61f
9:12 1 2 mph 1016.6mb 71f 61f
9:06  -  2 mph 1016.6mb 71f 61f
9:00 1 2 mph 1016.6mb 71f 61f
8:54  -  3 mph 1016.7mb 71f 60f
8:48 3 5 mph 1016.7mb 71f 60f
8:42 3 6 mph 1016.8mb 71f 60f
8:36 5 6 mph 1016.8mb 71f 60f
8:30  -  2 mph 1016.8mb 71f 60f
8:24  -  3 mph 1016.8mb 71f 60f
8:18 2 3 mph 1016.8mb 71f 60f